Tracking 27107 objects as of 20-Mar-2023
HD Live streaming from Space Station
objects crossing your sky now

SL-16 DEB

Track SL-16 DEB now!
10-day predictions


NORAD ID: 22407
Int'l Code: 1992-093CY
Perigee: 826.9 km
Apogee: 1,097.0 km
Inclination: 70.9 °
Period: 104.2 minutes
Semi major axis: 7332 km
RCS: 0.0422 m2 (small)
Launch date: December 25, 1992
Source: Commonwealth of Independent States (former USSR) (CIS)
Launch site: TYURATAM MISSILE AND SPACE COMPLEX (TTMTR)

Note: This is SATELLITE DEBRIS
Your satellite tracking list
Your tracking list is empty




NASA's NSSDC Master Catalog

Two Line Element Set (TLE):
1 22407U 92093CY  23078.64312183  .00000575  00000-0  50316-3 0  9991
2 22407  70.8604 161.1078 0184167 286.4276  71.6657 13.82553933520076
Source of the keplerian elements: AFSPC